DLH275 LIML-EDDF

Flight info

Callsign DLH275
Flight time N/A
Altitude 18000
Route PEPAG N851 ABESI/N0445F300 N851 UTAVO DCT ROLSA DCT LADOL T163 EMPAX EMPAX5B
Aircraft A320/M-SDE2E3FGIJ1LORWXYZ/HB1

Departure

Time 2026-05-04 15:11
Airport Milano Linate Airport (LIML)

Arrival

Time N/A
Airport Frankfurt Main Airport (EDDF)
Time Latitude Longitude Altitude Speed Heading
2026-05-04 14:51 45.45971 9.28033 365 ft 0 kts
2026-05-04 15:01 45.45963 9.28032 366 ft 4 kts 356°
2026-05-04 15:01 45.45938 9.28034 367 ft 4 kts 349°
2026-05-04 15:02 45.45915 9.28046 363 ft 4 kts 312°
2026-05-04 15:02 45.45907 9.28070 363 ft 1 kts 268°
2026-05-04 15:06 45.45907 9.28051 366 ft 3 kts 269°
2026-05-04 15:06 45.45903 9.28008 364 ft 5 kts 253°
2026-05-04 15:06 45.45848 9.27986 363 ft 11 kts 182°
2026-05-04 15:07 45.45713 9.27983 363 ft 8 kts 180°
2026-05-04 15:07 45.45647 9.27982 363 ft 15 kts 181°
2026-05-04 15:07 45.45481 9.27980 364 ft 27 kts 181°
2026-05-04 15:07 45.45296 9.27910 362 ft 29 kts 207°
2026-05-04 15:08 45.45100 9.27879 363 ft 30 kts 174°
2026-05-04 15:08 45.44890 9.27926 363 ft 31 kts 163°
2026-05-04 15:08 45.44667 9.27959 357 ft 33 kts 175°
2026-05-04 15:08 45.44436 9.27984 355 ft 34 kts 176°
2026-05-04 15:09 45.44219 9.28007 354 ft 31 kts 174°
2026-05-04 15:09 45.44002 9.28031 352 ft 32 kts 175°
2026-05-04 15:09 45.43774 9.28056 351 ft 34 kts 176°
2026-05-04 15:10 45.43460 9.28037 357 ft 18 kts 232°
2026-05-04 15:10 45.43447 9.27864 353 ft 17 kts 295°
2026-05-04 15:10 45.43813 9.27784 353 ft 67 kts 356°
2026-05-04 15:11 45.44517 9.27707 357 ft 132 kts 356°
2026-05-04 15:11 45.45570 9.27598 662 ft 158 kts 356°
2026-05-04 15:11 45.46648 9.27326 1432 ft 157 kts 337°
2026-05-04 15:11 45.47712 9.26796 2005 ft 171 kts 340°
2026-05-04 15:12 45.48899 9.26229 2402 ft 193 kts 339°
2026-05-04 15:12 45.50250 9.25589 2770 ft 216 kts 339°
2026-05-04 15:12 45.51759 9.24866 3211 ft 241 kts 338°
2026-05-04 15:12 45.53412 9.24021 3891 ft 259 kts 338°
2026-05-04 15:13 45.55120 9.23099 4872 ft 264 kts 338°
2026-05-04 15:13 45.56889 9.22300 5826 ft 270 kts 345°
2026-05-04 15:13 45.58751 9.21701 6723 ft 278 kts 348°
2026-05-04 15:13 45.60676 9.21159 7557 ft 285 kts 349°
2026-05-04 15:14 45.62644 9.20609 8435 ft 291 kts 348°
2026-05-04 15:14 45.64635 9.20033 9278 ft 299 kts 347°
2026-05-04 15:14 45.66702 9.19407 10119 ft 306 kts 347°
2026-05-04 15:14 45.68864 9.18728 10567 ft 328 kts 346°
2026-05-04 15:15 45.71164 9.17953 10900 ft 351 kts 345°
2026-05-04 15:15 45.73618 9.17075 11168 ft 374 kts 344°
2026-05-04 15:15 45.76186 9.16130 11339 ft 397 kts 344°
2026-05-04 15:16 45.81771 9.14066 12089 ft 423 kts 344°
2026-05-04 15:16 45.84637 9.13027 12755 ft 427 kts 344°
2026-05-04 15:16 45.90409 9.10716 14077 ft 432 kts 341°
2026-05-04 15:17 45.93306 9.09443 14598 ft 436 kts 340°
2026-05-04 15:17 45.99159 9.07040 15665 ft 445 kts 348°
2026-05-04 15:17 46.02268 9.06458 16130 ft 450 kts 351°
2026-05-04 15:18 46.05393 9.05938 16699 ft 452 kts 351°
2026-05-04 15:18 46.08533 9.05442 17207 ft 455 kts 352°
2026-05-04 15:18 46.11669 9.04954 17700 ft 459 kts 351°
2026-05-04 15:19 46.18063 9.03951 18083 ft 462 kts 352°